Location: Bathsheba
(13.2167°N, 59.5167°W)
Time: 22:12:51
(UTC+00:00)

SL-16 R/B - Pass Details

Date: 18 September 2020
Orbit: 842 x 848 km, 71.0° (Epoch: 20 October)

Event Time Altitude Azimuth Distance (km) Brightness Sun altitude
Rises 22:51:19 0° 336° (NNW) 3,392 5.8 -14.1°
Reaches altitude 10° 22:53:49 10° 332° (NNW) 2,456 5.1 -14.7°
Maximum altitude 22:59:17 54° 256° (WSW) 1,009 3.0 -16.1°
Drops below altitude 10° 23:04:46 10° 179° (S) 2,452 4.5 -17.4°
Sets 23:07:15 0° 174° (S) 3,385 5.2 -18.0°
